Location: *
(46.3500°N, 10.9000°E)
Time: 21:47:10
(UTC+00:00)

A-11 Canister half - Pass Details

Date: 26 April 2021
Orbit: 1526 x 1682 km, 47.3° (Epoch: 13 May)

Event Time Altitude Azimuth Distance (km) Brightness Sun altitude
Rises 15:15:12 0° 265° (W) 4,868 12.8 30.3°
Reaches altitude 10° 15:18:19 10° 266° (W) 3,898 12.7 29.8°
Maximum altitude 15:28:24 86° 355° (N) 1,686 9.7 28.1°
Drops below altitude 10° 15:38:39 10° 86° (E) 3,946 10.7 26.3°
Sets 15:41:49 0° 87° (E) 4,929 11.1 25.8°
